Probability
0 0 0 0 0 0 0 0 0 0 0 0 0 0 0 0 0 0 0 0 0 0 0 0 0 0 0 0 0 0 0 0 0 0 0 0 0 0 0 0 0 1 2 2
0 0 0 0 0 0 0 0 0 0 0 0 0 0 0 0 0 0 0 0 0 0 0 0 0 0 0 0 0 0 0 0 0 0 0 0 0 0 0 0 0 0 1 1
0 0 0 0 0 0 0 0 0 0 0 0 0 0 0 0 0 0 0 0 0 0 0 0 0 0 0 0 0 0 0 0 0 0 0 0 0 0 0 0 0 0 0 0
0 0 0 0 0 0 0 0 0 0 0 0 0 0 0 0 0 0 0 0 0 0 0 0 0 0 0 0 0 0 0 0 0 0 0 0 0 0 0 0 0 0 0 0
0 0 0 0 0 0 0 0 0 0 0 0 0 0 0 0 0 0 0 0 0 0 0 0 0 0 0 0 0 0 0 0 0 0 0 0 0 0 0 0 0 0 0 0
0 0 0 0 0 0 0 0 0 0 0 0 0 0 0 0 0 0 0 0 0 0 0 0 0 0 0 0 0 0 0 0 0 0 0 0 0 0 0 0 0 0 0 0
0 0 0 0 0 0 0 0 0 0 0 0 0 0 0 0 0 0 0 0 0 0 0 0 0 0 0 0 0 0 0 0 0 0 0 0 0 0 0 0 0 0 0 0
0 0 0 0 0 0 0 0 0 0 0 0 0 0 0 0 0 0 0 0 0 0 0 0 0 0 0 0 0 0 0 0 0 0 0 0 0 0 0 0 0 0 0 0
0 0 0 0 0 0 0 0 0 0 0 0 0 0 0 0 0 0 0 0 0 0 0 0 0 0 0 0 0 0 0 0 0 0 0 0 0 0 0 0 0 0 0 0
0 0 0 0 0 0 0 0 0 0 0 0 0 0 0 0 0 0 0 0 0 0 0 0 0 0 0 0 0 0 0 0 0 0 0 0 0 0 0 0 0 0 0 0
0 0 0 0 0 0 0 0 0 0 0 0 0 0 0 0 0 0 0 0 0 0 0 0 0 0 0 0 0 0 0 0 0 0 0 0 0 0 0 0 0 0 0 0
0 0 0 0 0 0 0 0 0 0 0 0 0 0 0 0 0 0 0 0 0 0 0 0 0 0 0 0 0 0 0 0 0 0 0 0 0 0 0 0 0 0 0 0
0 0 0 0 0 0 0 0 0 0 0 0 0 0 0 0 0 0 0 0 0 0 0 0 0 0 0 0 0 0 0 0 0 0 0 0 0 0 0 0 0 0 0 0
0 0 0 0 0 0 0 0 0 0 0 0 0 0 0 0 0 0 0 0 0 0 0 0 0 0 0 0 0 0 0 0 0 0 0 0 0 0 0 0 0 0 0 0
0 0 0 0 0 0 0 0 0 0 0 0 0 0 0 0 0 0 0 0 0 0 0 0 0 0 0 0 0 0 0 0 0 0 0 0 0 0 0 0 0 0 0 0
0 0 0 0 0 0 0 0 0 0 0 0 0 0 0 0 0 0 0 0 0 0 0 0 0 0 0 0 0 0 0 0 0 0 0 0 0 0 0 0 0 0 0 0
0 0 0 0 0 0 0 0 0 0 0 0 0 0 0 0 0 0 0 0 0 0 0 0 0 0 0 0 0 0 0 0 0 0 0 0 0 0 0 0 0 0 0 0
0 0 0 0 0 0 0 0 0 0 0 0 0 0 0 0 0 0 0 0 0 0 0 0 0 0 0 0 0 0 0 0 0 0 0 0 0 0 0 0 0 0 0 0
0 0 0 0 0 0 0 0 0 0 0 0 0 0 0 0 0 0 0 0 0 0 0 0 0 0 0 0 0 0 0 0 0 0 0 0 0 0 0 0 0 0 0 0
0 0 0 0 0 0 0 0 0 0 0 0 0 0 0 0 0 0 0 0 0 0 0 0 0 0 0 0 0 0 0 0 0 0 0 0 0 0 0 0 0 0 0 0
0 0 0 0 0 0 0 0 0 0 0 0 0 0 0 0 0 0 0 0 0 0 0 0 0 0 0 0 0 0 0 0 0 0 0 0 0 0 0 0 0 0 0 0
0 0 0 0 0 0 0 0 0 0 0 0 0 0 0 0 0 0 0 0 0 0 0 0 0 0 0 0 0 0 0 0 0 0 0 0 0 0 0 0 0 0 0 0
0 0 0 0 0 0 0 0 0 0 0 0 0 0 0 0 0 0 0 0 0 0 0 0 0 0 0 0 0 0 0 0 0 0 0 0 0 0 0 0 0 0 0 0
0 0 0 0 0 0 0 0 0 0 0 0 0 0 0 0 0 0 0 0 0 0 0 0 0 0 0 0 0 0 0 0 0 0 0 0 0 0 0 0 0 0 0 0
0 0 0 0 0 0 0 0 0 0 0 0 0 0 0 0 0 0 0 0 0 0 0 0 0 0 0 0 0 0 0 0 0 0 0 0 0 0 0 0 0 0 0 0
0 0 0 0 0 0 0 0 0 0 0 0 0 0 0 0 0 0 0 0 0 0 0 0 0 0 0 0 0 0 0 0 0 0 0 0 0 0 0 0 0 0 0 0
0 0 0 0 0 0 0 0 0 0 0 0 0 0 0 0 0 0 0 0 0 0 0 0 0 0 0 0 0 0 0 0 0 0 0 0 0 0 0 0 0 0 0 0
Wind_Speed
7 6 4 6 7 7 9 9 9 10 10 14 9 7 7 6 6 7 8 7 7 7 7 7 7 7 7 7 7 6 6 7 7 7 7 6 6 5 5 5 5 5 5 5
5 3 3 7 9 9 10 9 11 11 15 11 7 5 6 6 7 8 8 8 7 8 7 8 7 7 7 7 7 6 7 7 7 7 6 6 6 5 5 5 5 5 5 5
4 3 4 9 8 9 6 7 8 11 12 6 6 6 6 6 7 8 8 8 8 8 7 7 7 7 8 8 7 6 7 7 7 7 7 7 6 6 5 5 5 5 5 5
2 3 7 7 1 5 7 7 9 9 8 6 8 7 7 6 6 7 7 7 7 7 8 7 7 7 7 7 7 7 7 7 7 7 7 7 6 6 5 5 4 4 5 5
1 3 10 8 3 4 5 7 6 9 10 8 6 6 5 4 4 6 6 6 6 6 6 7 7 7 7 7 7 7 7 7 7 7 7 7 7 6 5 4 4 4 4 4
3 3 8 6 1 1 2 6 4 5 7 5 3 4 6 3 4 6 6 5 5 5 6 7 7 6 6 7 7 7 8 8 7 7 7 7 7 6 5 4 4 4 4 4
5 6 11 6 1 3 3 7 3 3 4 3 4 6 6 6 6 5 6 6 5 5 5 6 7 6 7 7 8 8 7 7 7 7 6 6 6 5 5 4 4 4 4 4
5 5 11 3 6 6 7 3 2 3 4 4 6 6 6 6 6 6 6 6 6 6 7 7 6 6 7 7 8 7 7 7 7 7 6 5 5 5 4 4 3 3 4 4
10 9 4 4 6 4 2 3 3 3 4 4 4 6 6 6 6 6 6 6 5 6 7 7 6 5 7 8 8 7 7 7 7 7 6 6 5 5 4 3 2 3 3 3
6 9 6 5 5 4 4 4 4 4 4 3 5 6 6 6 6 6 6 6 6 6 7 8 8 7 7 7 7 7 7 7 7 6 6 5 4 4 3 3 3 3 3 3
7 7 5 5 7 6 4 4 4 3 3 3 4 5 5 6 6 6 6 6 6 6 7 9 8 8 7 6 6 6 7 7 6 5 5 5 4 3 4 3 3 4 3 3
8 6 5 6 4 3 4 4 4 4 4 3 3 5 5 6 5 5 6 6 6 7 8 8 8 8 7 6 5 5 6 6 5 4 4 4 4 4 6 6 7 7 7 6
5 3 4 5 3 2 3 4 4 4 4 5 4 4 4 5 5 5 6 6 6 7 7 8 8 8 7 6 5 5 6 6 4 4 4 4 4 4 5 6 7 7 7 7
4 2 3 3 3 3 3 3 3 3 4 4 4 4 4 4 5 5 6 6 6 6 7 7 7 8 7 6 6 5 5 6 5 4 4 4 3 3 3 4 4 4 5 7
3 3 4 3 3 3 2 2 3 4 4 4 3 3 4 4 6 6 6 6 6 6 6 7 7 8 7 6 6 6 5 4 4 4 3 3 3 3 3 3 3 4 4 4
3 3 2 2 3 3 2 2 3 5 4 4 4 4 5 5 5 6 5 5 5 7 7 7 8 8 7 6 6 5 5 8 6 4 3 3 3 3 3 3 3 3 3 4
2 3 3 4 4 4 3 4 4 5 4 4 5 5 5 5 5 5 5 5 5 6 6 7 8 8 7 6 5 4 4 5 8 5 3 3 3 3 3 3 3 3 3 4
5 5 4 4 4 4 4 4 4 4 4 4 4 4 4 4 5 6 6 6 6 6 6 6 7 7 6 6 5 4 4 4 4 3 3 3 3 3 3 3 3 3 3 4
3 3 3 3 3 3 4 4 4 4 4 3 3 4 4 5 5 5 5 5 5 7 7 7 10 7 6 7 6 3 4 4 4 4 3 5 5 3 3 3 3 3 3 3
2 2 2 2 2 2 3 3 3 3 3 3 3 4 4 5 5 4 4 4 4 5 6 8 7 6 6 6 6 3 3 4 4 4 4 3 4 4 4 4 4 3 3 3
2 2 2 2 2 2 2 2 2 3 3 3 3 4 5 5 4 4 3 5 5 5 6 8 5 5 5 5 6 3 3 3 3 3 4 4 4 4 4 4 4 4 3 3
2 1 2 2 2 3 3 2 2 3 3 3 3 3 4 4 4 4 4 4 5 8 6 4 5 7 7 7 3 3 3 4 4 3 3 4 4 4 4 4 4 4 3 3
1 1 2 2 2 3 3 2 2 2 3 3 3 3 4 4 3 3 5 4 4 8 6 4 7 10 10 5 3 3 4 4 4 4 4 4 4 4 4 4 4 3 3 3
1 1 2 1 1 1 3 3 3 2 3 3 3 3 3 3 3 2 3 6 8 8 5 7 11 11 9 4 3 3 4 4 4 4 4 4 3 3 3 3 3 3 3 3
1 1 1 1 1 2 3 3 3 3 2 2 3 3 2 2 2 3 3 4 7 7 5 7 11 11 6 4 4 4 4 4 4 4 3 3 3 3 3 3 3 3 3 3
1 1 2 2 2 2 2 2 2 2 2 3 3 2 2 2 2 3 3 4 5 7 5 4 6 7 5 4 4 4 4 5 5 5 4 4 4 4 4 4 4 4 3 3
1 1 1 1 2 1 1 2 2 3 2 2 3 3 3 3 3 3 3 4 4 4 4 4 4 4 5 5 5 5 4 4 4 4 4 4 4 4 4 4 4 4 4 4
Wind_Direction
260 267 249 244 240 209 207 215 225 251 254 270 284 290 295 299 307 311 311 312 310 310 311 313 314 314 313 312 315 315 314 312 307 305 303 303 302 300 295 283 268 261 258 253
281 265 256 265 254 229 228 233 244 266 273 272 279 288 296 298 301 302 304 306 308 310 312 311 310 310 310 310 311 313 311 307 306 306 303 302 301 299 297 293 281 267 259 254
275 316 327 272 239 205 206 212 206 234 254 287 294 290 286 290 294 293 299 306 308 309 307 306 306 304 303 305 308 310 307 306 306 304 304 304 301 301 297 291 287 281 265 255
289 1 255 248 171 188 209 237 223 242 266 276 271 279 277 271 276 285 295 301 303 307 309 309 307 306 306 306 307 306 305 305 305 305 306 305 302 300 295 285 280 280 281 271
188 263 276 288 240 180 202 265 231 240 266 284 298 308 288 263 260 275 285 291 292 296 299 305 308 309 309 309 308 307 305 305 306 306 307 307 304 300 295 285 282 279 280 277
172 222 250 260 238 187 123 282 258 226 263 286 330 309 290 311 310 302 302 301 301 304 306 308 309 311 308 307 307 303 303 304 306 308 306 304 301 300 294 283 280 286 290 286
206 234 263 260 191 120 172 260 278 234 255 258 241 247 284 310 312 305 303 304 307 308 307 304 309 312 307 305 301 300 305 307 308 309 304 299 299 300 299 292 290 289 291 293
176 212 255 204 140 188 227 276 280 267 262 257 264 283 298 306 308 310 311 311 313 312 309 310 311 310 306 302 303 308 308 308 309 309 305 306 304 303 300 295 293 290 293 298
196 218 251 177 203 229 243 266 269 268 279 276 284 288 298 302 304 305 306 308 310 308 309 311 310 306 301 301 308 311 311 309 308 308 307 308 305 303 303 298 287 292 292 297
248 261 260 246 253 263 251 254 268 273 280 275 279 288 296 300 303 305 307 307 310 312 311 311 313 310 298 300 307 308 308 308 308 307 309 309 303 300 297 297 291 289 291 295
253 275 301 269 244 250 260 270 280 286 276 266 277 289 289 294 296 299 304 307 309 307 305 307 313 311 305 305 308 308 307 308 308 305 305 307 303 296 293 281 276 279 280 279
233 230 221 258 267 245 250 265 271 280 293 292 275 279 290 290 291 296 302 307 311 310 310 312 314 314 313 312 310 307 307 309 306 306 307 308 309 311 312 305 308 301 298 294
241 259 240 267 283 263 253 265 274 270 269 285 287 278 283 289 294 300 303 308 309 308 309 313 316 318 321 319 315 309 303 306 306 306 308 309 309 307 312 321 323 319 317 315
246 268 278 269 273 281 275 281 285 285 281 280 284 291 291 293 301 304 303 304 307 310 312 315 317 318 322 323 317 312 308 308 311 306 306 307 307 305 302 309 319 318 319 323
254 243 251 278 290 300 304 312 314 305 305 308 304 301 300 300 300 300 303 311 318 317 318 320 317 316 323 324 320 314 313 312 310 311 310 306 307 308 311 313 313 316 323 327
289 278 268 272 276 293 305 302 293 294 300 304 304 302 296 293 296 302 308 317 319 314 314 314 312 314 321 322 320 317 315 318 322 317 317 317 317 319 321 321 320 325 328 326
264 273 270 278 278 282 278 271 268 278 290 292 293 299 304 308 312 314 315 315 307 302 304 307 309 316 320 319 316 315 316 319 322 323 322 319 321 321 319 319 323 325 324 329
236 242 241 243 252 268 280 279 276 279 279 282 295 302 302 302 302 306 313 319 320 317 317 318 318 323 323 321 319 316 317 318 321 322 321 322 324 321 320 318 320 320 324 333
259 254 255 260 258 258 264 271 276 279 282 286 289 288 287 289 295 304 314 320 319 317 320 321 323 330 324 321 325 316 319 320 323 323 322 324 331 334 330 322 322 321 321 326
283 281 279 280 279 264 269 276 280 284 285 282 285 292 298 301 305 308 310 301 293 297 308 317 322 322 319 317 323 320 321 318 321 324 325 326 326 326 327 326 323 322 327 330
280 285 288 291 294 289 277 278 279 286 291 284 275 281 290 300 305 305 309 305 308 314 318 324 330 321 318 322 325 329 322 318 318 317 319 320 319 320 323 325 325 324 323 321
266 265 273 280 288 298 298 289 276 283 293 295 291 290 299 306 310 306 293 286 308 322 329 323 320 323 332 334 336 331 325 322 319 318 317 316 316 316 318 320 317 317 319 321
269 269 272 276 277 287 302 300 288 284 286 290 293 295 294 295 297 302 308 311 317 325 331 322 327 333 339 345 340 331 327 323 319 316 314 313 312 311 312 314 314 317 321 322
265 277 286 294 300 308 308 307 306 299 290 287 287 286 290 304 307 295 299 317 327 331 331 328 336 340 345 349 339 332 326 320 315 313 312 310 310 310 312 314 315 316 315 314
262 267 274 289 290 287 291 304 314 316 318 313 310 309 304 291 293 309 318 323 329 338 337 336 341 345 350 343 338 332 328 323 319 320 317 317 318 316 312 310 310 310 309 307
262 264 266 266 267 279 290 298 302 308 314 317 321 324 326 327 324 327 333 334 334 338 341 338 337 340 341 337 334 331 328 327 331 332 328 323 318 314 310 310 309 304 301 297
302 299 300 304 298 288 286 285 288 296 299 303 315 321 326 332 337 340 340 339 338 338 336 335 336 336 336 336 333 331 329 327 326 325 324 322 319 315 312 307 303 300 298 296